Tracking 17925 objects as of 21-January-2017
HD Live streaming from Space Station
objects crossing your sky now

GORIZONT 30

Track GORIZONT 30 now!
GORIZONT 30 is classified as:


NORAD ID: 23108
Int'l Code: 1994-030A
Perigee: 35,793.5 km
Apogee: 35,850.8 km
Inclination: 14.6 °
Period: 1,437.5 minutes
Semi major axis: 42193 km
RCS: 12.5892 m2 (large)
Launch date: May 20, 1994
Source: Commonwealth of Independent States (former USSR) (CIS)
Launch site: TYURATAM MISSILE AND SPACE COMPLEX (TTMTR)
Your satellite tracking list
Your tracking list is empty





NASA's NSSDC Master Catalog

Two Line Element Set (TLE):
1 23108U 94030A   17018.62384711  .00000051  00000-0  00000+0 0  9994
2 23108  14.6087  18.1106 0006787 223.6017 328.3170  1.00170442 83024
Source of the keplerian elements: AFSPC